Time,TemperatureF,DewpointF,PressureIn,WindDirection,WindDirectionDegrees,WindSpeedMPH,WindSpeedGustMPH,Humidity,HourlyPrecipIn,Conditions,Clouds,dailyrainin,SoftwareType,DateUTC
2013-04-03 00:00:00,37.1,5.2,28.19,South,190,11.1,0.0,26,0.00,NA,NA,0.00,davis-wu-upload.pl,2013-04-03 04:00:00,
2013-04-03 00:01:00,37.1,5.2,28.19,South,190,11.1,0.0,26,0.00,NA,NA,0.00,davis-wu-upload.pl,2013-04-03 04:01:00,
2013-04-03 00:08:00,37.0,5.2,28.19,South,190,11.1,0.0,26,0.00,NA,NA,0.00,davis-wu-upload.pl,2013-04-03 04:08:00,
2013-04-03 00:09:00,37.1,5.3,28.19,South,190,11.1,0.0,26,0.00,NA,NA,0.00,davis-wu-upload.pl,2013-04-03 04:09:00,
2013-04-03 00:14:00,36.9,5.3,28.19,South,190,11.1,0.0,26,0.00,NA,NA,0.00,davis-wu-upload.pl,2013-04-03 04:14:00,
2013-04-03 00:19:00,37.0,5.3,28.19,South,190,11.1,0.0,26,0.00,NA,NA,0.00,davis-wu-upload.pl,2013-04-03 04:19:00,
2013-04-03 00:24:00,36.8,5.3,28.19,South,190,11.1,0.0,26,0.00,NA,NA,0.00,davis-wu-upload.pl,2013-04-03 04:24:00,
2013-04-03 00:29:00,36.7,5.3,28.19,South,190,11.1,0.0,26,0.00,NA,NA,0.00,davis-wu-upload.pl,2013-04-03 04:29:00,
2013-04-03 00:34:00,36.9,5.3,28.19,South,190,11.1,0.0,26,0.00,NA,NA,0.00,davis-wu-upload.pl,2013-04-03 04:34:00,
2013-04-03 00:39:00,36.9,5.3,28.19,South,190,11.1,0.0,26,0.00,NA,NA,0.00,davis-wu-upload.pl,2013-04-03 04:39:00,
2013-04-03 00:44:00,36.9,5.5,28.19,South,190,11.1,0.0,26,0.00,NA,NA,0.00,davis-wu-upload.pl,2013-04-03 04:44:00,
2013-04-03 00:50:00,36.8,5.7,28.19,South,190,11.1,0.0,27,0.00,NA,NA,0.00,davis-wu-upload.pl,2013-04-03 04:50:00,
2013-04-03 00:55:00,36.5,5.7,28.19,South,190,11.1,0.0,27,0.00,NA,NA,0.00,davis-wu-upload.pl,2013-04-03 04:55:00,
2013-04-03 01:00:00,36.3,5.7,28.19,South,190,11.1,0.0,27,0.00,NA,NA,0.00,davis-wu-upload.pl,2013-04-03 05:00:00,
2013-04-03 01:05:00,36.4,5.7,28.19,South,190,11.1,0.0,27,0.00,NA,NA,0.00,davis-wu-upload.pl,2013-04-03 05:05:00,
2013-04-03 01:10:00,36.1,5.8,28.19,South,190,11.1,0.0,28,0.00,NA,NA,0.00,davis-wu-upload.pl,2013-04-03 05:10:00,
2013-04-03 01:15:00,36.5,5.7,28.19,South,190,11.1,0.0,27,0.00,NA,NA,0.00,davis-wu-upload.pl,2013-04-03 05:15:00,
2013-04-03 01:20:00,36.4,5.7,28.19,South,190,11.1,0.0,27,0.00,NA,NA,0.00,davis-wu-upload.pl,2013-04-03 05:20:00,
2013-04-03 01:25:00,36.2,5.7,28.19,South,190,11.1,0.0,27,0.00,NA,NA,0.00,davis-wu-upload.pl,2013-04-03 05:25:00,
2013-04-03 01:30:00,36.2,5.6,28.20,South,190,11.1,0.0,27,0.00,NA,NA,0.00,davis-wu-upload.pl,2013-04-03 05:30:00,
2013-04-03 01:35:00,36.1,5.7,28.20,South,190,11.1,0.0,27,0.00,NA,NA,0.00,davis-wu-upload.pl,2013-04-03 05:35:00,
2013-04-03 01:40:00,36.1,5.7,28.20,South,190,11.1,0.0,28,0.00,NA,NA,0.00,davis-wu-upload.pl,2013-04-03 05:40:00,
2013-04-03 01:45:00,36.1,5.8,28.20,South,190,11.1,0.0,28,0.00,NA,NA,0.00,davis-wu-upload.pl,2013-04-03 05:45:00,
2013-04-03 01:50:00,36.1,5.8,28.20,South,190,11.1,0.0,28,0.00,NA,NA,0.00,davis-wu-upload.pl,2013-04-03 05:50:00,
2013-04-03 01:55:00,36.0,5.9,28.20,South,190,11.1,0.0,28,0.00,NA,NA,0.00,davis-wu-upload.pl,2013-04-03 05:55:00,
2013-04-03 02:00:00,35.9,5.8,28.20,South,190,11.1,0.0,28,0.00,NA,NA,0.00,davis-wu-upload.pl,2013-04-03 06:00:00,
2013-04-03 02:05:00,35.9,5.8,28.20,South,190,11.1,0.0,28,0.00,NA,NA,0.00,davis-wu-upload.pl,2013-04-03 06:05:00,
2013-04-03 02:10:00,36.0,5.9,28.20,South,190,11.1,0.0,28,0.00,NA,NA,0.00,davis-wu-upload.pl,2013-04-03 06:10:00,
2013-04-03 02:15:00,35.7,5.9,28.20,South,190,11.1,0.0,28,0.00,NA,NA,0.00,davis-wu-upload.pl,2013-04-03 06:15:00,
2013-04-03 02:20:00,35.9,6.1,28.20,South,190,11.1,0.0,28,0.00,NA,NA,0.00,davis-wu-upload.pl,2013-04-03 06:20:00,
2013-04-03 02:25:00,35.8,6.1,28.20,South,190,11.1,0.0,28,0.00,NA,NA,0.00,davis-wu-upload.pl,2013-04-03 06:25:00,
2013-04-03 02:30:00,35.7,6.3,28.20,South,190,11.1,0.0,29,0.00,NA,NA,0.00,davis-wu-upload.pl,2013-04-03 06:30:00,
2013-04-03 02:35:00,35.5,6.3,28.20,South,190,11.1,0.0,29,0.00,NA,NA,0.00,davis-wu-upload.pl,2013-04-03 06:35:00,
2013-04-03 02:40:00,35.5,6.4,28.20,South,190,11.1,0.0,29,0.00,NA,NA,0.00,davis-wu-upload.pl,2013-04-03 06:40:00,
2013-04-03 02:45:00,35.5,6.4,28.20,South,190,11.1,0.0,29,0.00,NA,NA,0.00,davis-wu-upload.pl,2013-04-03 06:45:00,
2013-04-03 02:50:00,35.4,6.6,28.20,South,190,11.1,0.0,30,0.00,NA,NA,0.00,davis-wu-upload.pl,2013-04-03 06:50:00,
2013-04-03 02:55:00,35.3,6.7,28.20,South,190,11.1,0.0,30,0.00,NA,NA,0.00,davis-wu-upload.pl,2013-04-03 06:55:00,
2013-04-03 03:00:00,35.2,6.8,28.20,South,190,11.1,0.0,30,0.00,NA,NA,0.00,davis-wu-upload.pl,2013-04-03 07:00:00,
2013-04-03 03:05:00,35.1,7.1,28.20,South,190,11.1,0.0,30,0.00,NA,NA,0.00,davis-wu-upload.pl,2013-04-03 07:05:00,
2013-04-03 03:10:00,34.8,7.4,28.20,South,190,11.1,0.0,31,0.00,NA,NA,0.00,davis-wu-upload.pl,2013-04-03 07:10:00,
2013-04-03 03:15:00,34.8,7.5,28.20,South,190,11.1,0.0,32,0.00,NA,NA,0.00,davis-wu-upload.pl,2013-04-03 07:15:00,
2013-04-03 03:20:00,35.1,7.5,28.20,South,190,11.1,0.0,31,0.00,NA,NA,0.00,davis-wu-upload.pl,2013-04-03 07:20:00,
2013-04-03 03:25:00,34.7,7.8,28.20,South,190,11.1,0.0,32,0.00,NA,NA,0.00,davis-wu-upload.pl,2013-04-03 07:25:00,
2013-04-03 03:30:00,34.6,7.8,28.20,South,190,11.1,0.0,32,0.00,NA,NA,0.00,davis-wu-upload.pl,2013-04-03 07:30:00,
2013-04-03 03:35:00,34.5,7.8,28.20,South,190,11.1,0.0,32,0.00,NA,NA,0.00,davis-wu-upload.pl,2013-04-03 07:35:00,
2013-04-03 03:40:00,34.4,7.9,28.20,South,190,11.1,0.0,33,0.00,NA,NA,0.00,davis-wu-upload.pl,2013-04-03 07:40:00,
2013-04-03 03:45:00,34.2,7.9,28.20,South,190,11.1,0.0,33,0.00,NA,NA,0.00,davis-wu-upload.pl,2013-04-03 07:45:00,
2013-04-03 03:50:00,34.2,8.0,28.21,South,190,11.1,0.0,33,0.00,NA,NA,0.00,davis-wu-upload.pl,2013-04-03 07:50:00,
2013-04-03 03:55:00,34.2,8.0,28.21,South,190,11.1,0.0,33,0.00,NA,NA,0.00,davis-wu-upload.pl,2013-04-03 07:55:00,
2013-04-03 04:00:00,34.3,8.2,28.21,South,190,11.1,0.0,33,0.00,NA,NA,0.00,davis-wu-upload.pl,2013-04-03 08:00:00,
2013-04-03 04:05:00,34.1,8.3,28.21,South,190,11.1,0.0,33,0.00,NA,NA,0.00,davis-wu-upload.pl,2013-04-03 08:05:00,
2013-04-03 04:10:00,34.0,8.4,28.22,South,190,11.1,0.0,34,0.00,NA,NA,0.00,davis-wu-upload.pl,2013-04-03 08:10:00,
2013-04-03 04:15:00,33.9,8.3,28.21,South,190,11.1,0.0,34,0.00,NA,NA,0.00,davis-wu-upload.pl,2013-04-03 08:15:00,
2013-04-03 04:20:00,34.1,8.4,28.22,South,190,11.1,0.0,34,0.00,NA,NA,0.00,davis-wu-upload.pl,2013-04-03 08:20:00,
2013-04-03 04:25:00,33.9,8.4,28.22,South,190,11.1,0.0,34,0.00,NA,NA,0.00,davis-wu-upload.pl,2013-04-03 08:25:00,
2013-04-03 04:30:00,33.7,8.5,28.22,South,190,11.1,0.0,34,0.00,NA,NA,0.00,davis-wu-upload.pl,2013-04-03 08:30:00,
2013-04-03 04:35:00,33.7,8.7,28.22,South,190,11.1,0.0,35,0.00,NA,NA,0.00,davis-wu-upload.pl,2013-04-03 08:35:00,
2013-04-03 04:40:00,33.8,9.0,28.22,South,190,11.1,0.0,35,0.00,NA,NA,0.00,davis-wu-upload.pl,2013-04-03 08:40:00,
2013-04-03 04:45:00,33.9,9.0,28.22,South,190,11.1,0.0,35,0.00,NA,NA,0.00,davis-wu-upload.pl,2013-04-03 08:45:00,
2013-04-03 04:50:00,33.9,8.8,28.22,South,190,11.1,0.0,35,0.00,NA,NA,0.00,davis-wu-upload.pl,2013-04-03 08:50:00,
2013-04-03 04:55:00,33.9,8.9,28.22,South,190,11.1,0.0,35,0.00,NA,NA,0.00,davis-wu-upload.pl,2013-04-03 08:55:00,
2013-04-03 05:00:00,34.2,8.8,28.22,South,190,11.1,0.0,34,0.00,NA,NA,0.00,davis-wu-upload.pl,2013-04-03 09:00:00,
2013-04-03 05:06:00,34.0,8.8,28.22,South,190,11.1,0.0,34,0.00,NA,NA,0.00,davis-wu-upload.pl,2013-04-03 09:06:00,
2013-04-03 05:11:00,33.8,8.9,28.22,South,190,11.1,0.0,35,0.00,NA,NA,0.00,davis-wu-upload.pl,2013-04-03 09:11:00,
2013-04-03 05:16:00,33.3,9.0,28.22,South,190,11.1,0.0,36,0.00,NA,NA,0.00,davis-wu-upload.pl,2013-04-03 09:16:00,
2013-04-03 05:21:00,33.6,9.0,28.22,South,190,11.1,0.0,35,0.00,NA,NA,0.00,davis-wu-upload.pl,2013-04-03 09:21:00,
2013-04-03 05:27:00,33.7,8.9,28.22,South,190,11.1,0.0,35,0.00,NA,NA,0.00,davis-wu-upload.pl,2013-04-03 09:27:00,
2013-04-03 05:32:00,33.3,9.0,28.22,South,190,11.1,0.0,36,0.00,NA,NA,0.00,davis-wu-upload.pl,2013-04-03 09:32:00,
2013-04-03 05:37:00,33.4,9.0,28.23,South,190,11.1,0.0,36,0.00,NA,NA,0.00,davis-wu-upload.pl,2013-04-03 09:37:00,
2013-04-03 05:42:00,33.2,9.0,28.23,South,190,11.1,0.0,36,0.00,NA,NA,0.00,davis-wu-upload.pl,2013-04-03 09:42:00,
2013-04-03 05:47:00,33.2,9.0,28.23,South,190,11.1,0.0,36,0.00,NA,NA,0.00,davis-wu-upload.pl,2013-04-03 09:47:00,
2013-04-03 05:53:00,32.9,9.1,28.23,South,190,11.1,0.0,36,0.00,NA,NA,0.00,davis-wu-upload.pl,2013-04-03 09:53:00,
2013-04-03 05:58:00,33.0,9.2,28.23,South,190,11.1,0.0,37,0.00,NA,NA,0.00,davis-wu-upload.pl,2013-04-03 09:58:00,
2013-04-03 06:03:00,33.0,9.3,28.24,South,190,11.1,0.0,37,0.00,NA,NA,0.00,davis-wu-upload.pl,2013-04-03 10:03:00,
2013-04-03 06:08:00,33.2,9.3,28.23,South,190,11.1,0.0,36,0.00,NA,NA,0.00,davis-wu-upload.pl,2013-04-03 10:08:00,
2013-04-03 06:13:00,33.0,9.4,28.24,South,190,11.1,0.0,37,0.00,NA,NA,0.00,davis-wu-upload.pl,2013-04-03 10:13:00,
2013-04-03 06:18:00,32.9,9.4,28.24,South,190,11.1,0.0,37,0.00,NA,NA,0.00,davis-wu-upload.pl,2013-04-03 10:18:00,
2013-04-03 06:23:00,32.9,9.3,28.24,South,190,11.1,0.0,37,0.00,NA,NA,0.00,davis-wu-upload.pl,2013-04-03 10:23:00,
2013-04-03 06:28:00,32.8,9.3,28.24,South,190,11.1,0.0,37,0.00,NA,NA,0.00,davis-wu-upload.pl,2013-04-03 10:28:00,
2013-04-03 06:33:00,32.9,9.1,28.24,South,190,11.1,0.0,36,0.00,NA,NA,0.00,davis-wu-upload.pl,2013-04-03 10:33:00,
2013-04-03 06:38:00,32.6,9.1,28.24,South,190,11.1,0.0,37,0.00,NA,NA,0.00,davis-wu-upload.pl,2013-04-03 10:38:00,
2013-04-03 06:43:00,32.4,9.1,28.24,South,190,11.1,0.0,37,0.00,NA,NA,0.00,davis-wu-upload.pl,2013-04-03 10:43:00,
2013-04-03 06:48:00,32.2,9.1,28.24,South,190,11.1,0.0,37,0.00,NA,NA,0.00,davis-wu-upload.pl,2013-04-03 10:48:00,
2013-04-03 06:53:00,32.2,9.1,28.24,South,190,11.1,0.0,37,0.00,NA,NA,0.00,davis-wu-upload.pl,2013-04-03 10:53:00,
2013-04-03 06:58:00,31.8,9.6,28.24,South,190,11.1,0.0,39,0.00,NA,NA,0.00,davis-wu-upload.pl,2013-04-03 10:58:00,
2013-04-03 07:03:00,31.9,9.4,28.24,South,190,11.1,0.0,38,0.00,NA,NA,0.00,davis-wu-upload.pl,2013-04-03 11:03:00,
2013-04-03 07:08:00,31.9,9.5,28.24,South,190,11.1,0.0,39,0.00,NA,NA,0.00,davis-wu-upload.pl,2013-04-03 11:08:00,
2013-04-03 07:13:00,32.0,9.4,28.24,South,190,11.1,0.0,38,0.00,NA,NA,0.00,davis-wu-upload.pl,2013-04-03 11:13:00,
2013-04-03 07:19:00,32.0,9.4,28.24,South,190,11.1,0.0,38,0.00,NA,NA,0.00,davis-wu-upload.pl,2013-04-03 11:19:00,
2013-04-03 07:24:00,32.3,9.3,28.24,South,190,11.1,0.0,38,0.00,NA,NA,0.00,davis-wu-upload.pl,2013-04-03 11:24:00,
2013-04-03 07:29:00,32.1,9.4,28.24,South,190,11.1,0.0,38,0.00,NA,NA,0.00,davis-wu-upload.pl,2013-04-03 11:29:00,
2013-04-03 07:34:00,32.2,9.3,28.24,South,190,11.1,0.0,38,0.00,NA,NA,0.00,davis-wu-upload.pl,2013-04-03 11:34:00,
2013-04-03 07:39:00,32.0,9.5,28.24,South,190,11.1,0.0,39,0.00,NA,NA,0.00,davis-wu-upload.pl,2013-04-03 11:39:00,
2013-04-03 07:44:00,32.4,8.4,28.24,South,190,11.1,0.0,36,0.00,NA,NA,0.00,davis-wu-upload.pl,2013-04-03 11:44:00,
2013-04-03 07:49:00,32.1,8.4,28.24,South,190,11.1,0.0,36,0.00,NA,NA,0.00,davis-wu-upload.pl,2013-04-03 11:49:00,
2013-04-03 07:54:00,32.3,8.0,28.24,South,190,11.1,0.0,36,0.00,NA,NA,0.00,davis-wu-upload.pl,2013-04-03 11:54:00,
2013-04-03 07:59:00,32.4,7.5,28.25,South,190,11.1,0.0,35,0.00,NA,NA,0.00,davis-wu-upload.pl,2013-04-03 11:59:00,
2013-04-03 08:04:00,32.6,7.7,28.26,South,190,11.1,0.0,35,0.00,NA,NA,0.00,davis-wu-upload.pl,2013-04-03 12:04:00,
2013-04-03 08:09:00,32.5,7.7,28.26,South,190,11.1,0.0,35,0.00,NA,NA,0.00,davis-wu-upload.pl,2013-04-03 12:09:00,
2013-04-03 08:14:00,32.8,7.5,28.26,South,190,11.1,0.0,34,0.00,NA,NA,0.00,davis-wu-upload.pl,2013-04-03 12:14:00,
2013-04-03 08:19:00,33.0,7.2,28.26,South,190,11.1,0.0,33,0.00,NA,NA,0.00,davis-wu-upload.pl,2013-04-03 12:19:00,
2013-04-03 08:24:00,33.2,6.9,28.26,South,190,11.1,0.0,33,0.00,NA,NA,0.00,davis-wu-upload.pl,2013-04-03 12:24:00,
2013-04-03 08:29:00,33.3,7.0,28.26,South,190,11.1,0.0,33,0.00,NA,NA,0.00,davis-wu-upload.pl,2013-04-03 12:29:00,
2013-04-03 08:34:00,33.4,7.1,28.26,South,190,11.1,0.0,33,0.00,NA,NA,0.00,davis-wu-upload.pl,2013-04-03 12:34:00,
2013-04-03 08:39:00,33.7,7.2,28.27,South,190,11.1,0.0,32,0.00,NA,NA,0.00,davis-wu-upload.pl,2013-04-03 12:39:00,
2013-04-03 08:44:00,33.8,7.3,28.28,South,190,11.1,0.0,32,0.00,NA,NA,0.00,davis-wu-upload.pl,2013-04-03 12:44:00,
2013-04-03 08:49:00,34.0,6.3,28.28,South,190,11.1,0.0,31,0.00,NA,NA,0.00,davis-wu-upload.pl,2013-04-03 12:49:00,
2013-04-03 08:54:00,34.3,6.8,28.28,South,190,11.1,0.0,31,0.00,NA,NA,0.00,davis-wu-upload.pl,2013-04-03 12:54:00,
2013-04-03 09:00:00,34.9,7.1,28.28,South,190,11.1,0.0,31,0.00,NA,NA,0.00,davis-wu-upload.pl,2013-04-03 13:00:00,
2013-04-03 09:05:00,34.7,6.1,28.27,South,190,11.1,0.0,30,0.00,NA,NA,0.00,davis-wu-upload.pl,2013-04-03 13:05:00,
2013-04-03 09:10:00,34.5,6.0,28.28,South,190,11.1,0.0,30,0.00,NA,NA,0.00,davis-wu-upload.pl,2013-04-03 13:10:00,
2013-04-03 09:15:00,34.9,6.8,28.28,South,190,11.1,0.0,30,0.00,NA,NA,0.00,davis-wu-upload.pl,2013-04-03 13:15:00,
2013-04-03 09:20:00,35.7,6.9,28.29,South,190,11.1,0.0,30,0.00,NA,NA,0.00,davis-wu-upload.pl,2013-04-03 13:20:00,
2013-04-03 09:25:00,36.0,6.8,28.29,South,190,11.1,0.0,29,0.00,NA,NA,0.00,davis-wu-upload.pl,2013-04-03 13:25:00,
2013-04-03 09:30:00,36.0,6.7,28.30,South,190,11.1,0.0,29,0.00,NA,NA,0.00,davis-wu-upload.pl,2013-04-03 13:30:00,
2013-04-03 09:35:00,36.1,5.8,28.29,South,190,11.1,0.0,28,0.00,NA,NA,0.00,davis-wu-upload.pl,2013-04-03 13:35:00,
2013-04-03 09:40:00,36.5,6.4,28.29,South,190,11.1,0.0,28,0.00,NA,NA,0.00,davis-wu-upload.pl,2013-04-03 13:40:00,
2013-04-03 09:45:00,37.1,5.9,28.28,South,190,11.1,0.0,27,0.00,NA,NA,0.00,davis-wu-upload.pl,2013-04-03 13:45:00,
2013-04-03 09:50:00,36.9,5.8,28.28,South,190,11.1,0.0,27,0.00,NA,NA,0.00,davis-wu-upload.pl,2013-04-03 13:50:00,
2013-04-03 09:55:00,36.9,5.7,28.28,South,190,11.1,0.0,27,0.00,NA,NA,0.00,davis-wu-upload.pl,2013-04-03 13:55:00,
2013-04-03 10:00:00,37.0,5.7,28.28,South,190,11.1,0.0,27,0.00,NA,NA,0.00,davis-wu-upload.pl,2013-04-03 14:00:00,
2013-04-03 10:05:00,37.8,7.1,28.28,South,190,11.1,0.0,27,0.00,NA,NA,0.00,davis-wu-upload.pl,2013-04-03 14:05:00,
2013-04-03 10:10:00,38.0,6.5,28.28,South,190,11.1,0.0,27,0.00,NA,NA,0.00,davis-wu-upload.pl,2013-04-03 14:10:00,
2013-04-03 10:15:00,38.0,5.4,28.28,South,190,11.1,0.0,25,0.00,NA,NA,0.00,davis-wu-upload.pl,2013-04-03 14:15:00,
2013-04-03 10:20:00,38.0,6.1,28.28,South,190,11.1,0.0,26,0.00,NA,NA,0.00,davis-wu-upload.pl,2013-04-03 14:20:00,
2013-04-03 10:25:00,37.8,5.9,28.28,South,190,11.1,0.0,26,0.00,NA,NA,0.00,davis-wu-upload.pl,2013-04-03 14:25:00,
2013-04-03 10:30:00,38.2,5.1,28.28,South,190,11.1,0.0,25,0.00,NA,NA,0.00,davis-wu-upload.pl,2013-04-03 14:30:00,
2013-04-03 10:35:00,38.9,5.4,28.28,South,190,11.1,0.0,24,0.00,NA,NA,0.00,davis-wu-upload.pl,2013-04-03 14:35:00,
2013-04-03 10:40:00,39.1,4.9,28.28,South,190,11.1,0.0,24,0.00,NA,NA,0.00,davis-wu-upload.pl,2013-04-03 14:40:00,
2013-04-03 10:45:00,39.3,5.2,28.28,South,190,11.1,0.0,24,0.00,NA,NA,0.00,davis-wu-upload.pl,2013-04-03 14:45:00,
2013-04-03 10:50:00,39.7,5.8,28.28,South,190,11.1,0.0,24,0.00,NA,NA,0.00,davis-wu-upload.pl,2013-04-03 14:50:00,
2013-04-03 10:55:00,39.2,5.0,28.28,South,190,11.1,0.0,24,0.00,NA,NA,0.00,davis-wu-upload.pl,2013-04-03 14:55:00,
2013-04-03 11:00:00,40.2,5.8,28.28,South,190,11.1,0.0,24,0.00,NA,NA,0.00,davis-wu-upload.pl,2013-04-03 15:00:00,
2013-04-03 11:05:00,40.0,5.1,28.28,South,190,11.1,0.0,23,0.00,NA,NA,0.00,davis-wu-upload.pl,2013-04-03 15:05:00,
2013-04-03 11:10:00,40.6,5.7,28.28,South,190,11.1,0.0,23,0.00,NA,NA,0.00,davis-wu-upload.pl,2013-04-03 15:10:00,
2013-04-03 11:15:00,40.0,5.9,28.28,South,190,11.1,0.0,24,0.00,NA,NA,0.00,davis-wu-upload.pl,2013-04-03 15:15:00,
2013-04-03 11:20:00,39.8,4.7,28.28,South,190,11.1,0.0,23,0.00,NA,NA,0.00,davis-wu-upload.pl,2013-04-03 15:20:00,
2013-04-03 11:25:00,40.9,6.2,28.28,South,190,11.1,0.0,23,0.00,NA,NA,0.00,davis-wu-upload.pl,2013-04-03 15:25:00,
2013-04-03 11:30:00,41.5,5.6,28.28,South,190,11.1,0.0,22,0.00,NA,NA,0.00,davis-wu-upload.pl,2013-04-03 15:30:00,
2013-04-03 11:35:00,41.6,5.6,28.28,South,190,11.1,0.0,22,0.00,NA,NA,0.00,davis-wu-upload.pl,2013-04-03 15:35:00,
2013-04-03 11:40:00,40.7,5.3,28.28,South,190,11.1,0.0,23,0.00,NA,NA,0.00,davis-wu-upload.pl,2013-04-03 15:40:00,
2013-04-03 11:45:00,41.1,6.2,28.28,South,190,11.1,0.0,23,0.00,NA,NA,0.00,davis-wu-upload.pl,2013-04-03 15:45:00,
2013-04-03 11:50:00,40.8,5.2,28.27,South,190,11.1,0.0,22,0.00,NA,NA,0.00,davis-wu-upload.pl,2013-04-03 15:50:00,
2013-04-03 11:55:00,41.6,5.8,28.27,South,190,11.1,0.0,22,0.00,NA,NA,0.00,davis-wu-upload.pl,2013-04-03 15:55:00,
2013-04-03 12:00:00,42.0,6.1,28.27,South,190,11.1,0.0,22,0.00,NA,NA,0.00,davis-wu-upload.pl,2013-04-03 16:00:00,
2013-04-03 12:05:00,42.0,6.8,28.27,South,190,11.1,0.0,23,0.00,NA,NA,0.00,davis-wu-upload.pl,2013-04-03 16:05:00,
2013-04-03 12:10:00,42.9,7.5,28.27,South,190,11.1,0.0,23,0.00,NA,NA,0.00,davis-wu-upload.pl,2013-04-03 16:10:00,
2013-04-03 12:16:00,41.5,5.1,28.27,South,190,11.1,0.0,22,0.00,NA,NA,0.00,davis-wu-upload.pl,2013-04-03 16:16:00,
2013-04-03 12:21:00,41.1,5.1,28.26,South,190,11.1,0.0,22,0.00,NA,NA,0.00,davis-wu-upload.pl,2013-04-03 16:21:00,
2013-04-03 12:26:00,41.0,5.6,28.26,South,190,11.1,0.0,23,0.00,NA,NA,0.00,davis-wu-upload.pl,2013-04-03 16:26:00,
2013-04-03 12:32:00,41.3,6.0,28.26,South,190,11.1,0.0,23,0.00,NA,NA,0.00,davis-wu-upload.pl,2013-04-03 16:32:00,
2013-04-03 12:38:00,42.9,7.0,28.26,South,190,11.1,0.0,22,0.00,NA,NA,0.00,davis-wu-upload.pl,2013-04-03 16:38:00,
2013-04-03 12:44:00,43.3,7.7,28.26,South,190,11.1,0.0,23,0.00,NA,NA,0.00,davis-wu-upload.pl,2013-04-03 16:44:00,
2013-04-03 12:50:00,42.5,6.3,28.25,South,190,11.1,0.0,22,0.00,NA,NA,0.00,davis-wu-upload.pl,2013-04-03 16:50:00,
2013-04-03 12:55:00,43.0,6.4,28.25,South,190,11.1,0.0,22,0.00,NA,NA,0.00,davis-wu-upload.pl,2013-04-03 16:55:00,
2013-04-03 13:00:00,44.3,7.3,28.25,South,190,11.1,0.0,22,0.00,NA,NA,0.00,davis-wu-upload.pl,2013-04-03 17:00:00,
2013-04-03 13:05:00,43.6,6.2,28.25,South,190,11.1,0.0,21,0.00,NA,NA,0.00,davis-wu-upload.pl,2013-04-03 17:05:00,
2013-04-03 13:10:00,44.0,8.2,28.24,South,190,11.1,0.0,23,0.00,NA,NA,0.00,davis-wu-upload.pl,2013-04-03 17:10:00,
2013-04-03 13:16:00,44.3,9.3,28.24,South,190,11.1,0.0,24,0.00,NA,NA,0.00,davis-wu-upload.pl,2013-04-03 17:16:00,
2013-04-03 13:21:00,43.6,7.1,28.24,South,190,11.1,0.0,22,0.00,NA,NA,0.00,davis-wu-upload.pl,2013-04-03 17:21:00,
2013-04-03 13:26:00,43.9,5.8,28.23,South,190,11.1,0.0,20,0.00,NA,NA,0.00,davis-wu-upload.pl,2013-04-03 17:26:00,
2013-04-03 13:31:00,44.6,4.8,28.24,South,190,11.1,0.0,19,0.00,NA,NA,0.00,davis-wu-upload.pl,2013-04-03 17:31:00,
2013-04-03 13:36:00,44.8,7.7,28.24,South,190,11.1,0.0,22,0.00,NA,NA,0.00,davis-wu-upload.pl,2013-04-03 17:36:00,
2013-04-03 13:42:00,44.8,7.0,28.24,South,190,11.1,0.0,21,0.00,NA,NA,0.00,davis-wu-upload.pl,2013-04-03 17:42:00,
2013-04-03 13:48:00,43.5,6.4,28.24,South,190,11.1,0.0,21,0.00,NA,NA,0.00,davis-wu-upload.pl,2013-04-03 17:48:00,
2013-04-03 13:53:00,44.4,6.8,28.23,South,190,11.1,0.0,21,0.00,NA,NA,0.00,davis-wu-upload.pl,2013-04-03 17:53:00,
2013-04-03 13:58:00,44.4,7.8,28.23,South,190,11.1,0.0,22,0.00,NA,NA,0.00,davis-wu-upload.pl,2013-04-03 17:58:00,
2013-04-03 14:03:00,45.3,8.1,28.23,South,190,11.1,0.0,22,0.00,NA,NA,0.00,davis-wu-upload.pl,2013-04-03 18:03:00,
2013-04-03 14:08:00,46.7,9.4,28.23,South,190,11.1,0.0,22,0.00,NA,NA,0.00,davis-wu-upload.pl,2013-04-03 18:08:00,
2013-04-03 14:13:00,44.6,6.8,28.23,South,190,11.1,0.0,21,0.00,NA,NA,0.00,davis-wu-upload.pl,2013-04-03 18:13:00,
2013-04-03 14:19:00,45.8,8.2,28.23,South,190,11.1,0.0,21,0.00,NA,NA,0.00,davis-wu-upload.pl,2013-04-03 18:19:00,
2013-04-03 14:25:00,46.0,8.3,28.22,South,190,11.1,0.0,21,0.00,NA,NA,0.00,davis-wu-upload.pl,2013-04-03 18:25:00,
2013-04-03 14:30:00,45.5,6.7,28.23,South,190,11.1,0.0,20,0.00,NA,NA,0.00,davis-wu-upload.pl,2013-04-03 18:30:00,
2013-04-03 14:36:00,44.4,5.8,28.23,South,190,11.1,0.0,20,0.00,NA,NA,0.00,davis-wu-upload.pl,2013-04-03 18:36:00,
2013-04-03 14:41:00,45.4,7.5,28.23,South,190,11.1,0.0,21,0.00,NA,NA,0.00,davis-wu-upload.pl,2013-04-03 18:41:00,
2013-04-03 14:46:00,45.9,8.1,28.23,South,190,11.1,0.0,21,0.00,NA,NA,0.00,davis-wu-upload.pl,2013-04-03 18:46:00,
2013-04-03 14:51:00,45.3,6.7,28.23,South,190,11.1,0.0,20,0.00,NA,NA,0.00,davis-wu-upload.pl,2013-04-03 18:51:00,
2013-04-03 14:56:00,46.3,7.7,28.23,South,190,11.1,0.0,20,0.00,NA,NA,0.00,davis-wu-upload.pl,2013-04-03 18:56:00,
2013-04-03 15:01:00,46.4,7.3,28.23,South,190,11.1,0.0,20,0.00,NA,NA,0.00,davis-wu-upload.pl,2013-04-03 19:01:00,
2013-04-03 15:07:00,46.6,7.7,28.23,South,190,11.1,0.0,20,0.00,NA,NA,0.00,davis-wu-upload.pl,2013-04-03 19:07:00,
2013-04-03 15:12:00,47.4,6.6,28.23,South,190,11.1,0.0,19,0.00,NA,NA,0.00,davis-wu-upload.pl,2013-04-03 19:12:00,
2013-04-03 15:17:00,46.2,6.7,28.23,South,190,11.1,0.0,19,0.00,NA,NA,0.00,davis-wu-upload.pl,2013-04-03 19:17:00,
2013-04-03 15:22:00,47.1,7.1,28.22,South,190,11.1,0.0,19,0.00,NA,NA,0.00,davis-wu-upload.pl,2013-04-03 19:22:00,
2013-04-03 15:27:00,48.1,8.5,28.22,South,190,11.1,0.0,20,0.00,NA,NA,0.00,davis-wu-upload.pl,2013-04-03 19:27:00,
2013-04-03 15:32:00,48.6,7.5,28.22,South,190,11.1,0.0,19,0.00,NA,NA,0.00,davis-wu-upload.pl,2013-04-03 19:32:00,
2013-04-03 15:38:00,48.4,8.9,28.23,South,190,11.1,0.0,20,0.00,NA,NA,0.00,davis-wu-upload.pl,2013-04-03 19:38:00,
2013-04-03 15:43:00,48.0,6.5,28.22,South,190,11.1,0.0,18,0.00,NA,NA,0.00,davis-wu-upload.pl,2013-04-03 19:43:00,
2013-04-03 15:48:00,48.2,5.4,28.22,South,190,11.1,0.0,17,0.00,NA,NA,0.00,davis-wu-upload.pl,2013-04-03 19:48:00,
2013-04-03 15:53:00,47.5,4.9,28.22,South,190,11.1,0.0,17,0.00,NA,NA,0.00,davis-wu-upload.pl,2013-04-03 19:53:00,
2013-04-03 15:58:00,47.5,5.6,28.22,South,190,11.1,0.0,18,0.00,NA,NA,0.00,davis-wu-upload.pl,2013-04-03 19:58:00,
2013-04-03 16:03:00,47.3,6.0,28.22,South,190,11.1,0.0,18,0.00,NA,NA,0.00,davis-wu-upload.pl,2013-04-03 20:03:00,
2013-04-03 16:08:00,50.1,6.9,28.22,South,190,11.1,0.0,17,0.00,NA,NA,0.00,davis-wu-upload.pl,2013-04-03 20:08:00,
2013-04-03 16:13:00,50.3,7.5,28.22,South,190,11.1,0.0,17,0.00,NA,NA,0.00,davis-wu-upload.pl,2013-04-03 20:13:00,
2013-04-03 16:18:00,49.6,5.3,28.22,South,190,11.1,0.0,16,0.00,NA,NA,0.00,davis-wu-upload.pl,2013-04-03 20:18:00,
2013-04-03 16:23:00,49.1,4.6,28.22,South,190,11.1,0.0,16,0.00,NA,NA,0.00,davis-wu-upload.pl,2013-04-03 20:23:00,
2013-04-03 16:28:00,49.9,5.8,28.22,South,190,11.1,0.0,16,0.00,NA,NA,0.00,davis-wu-upload.pl,2013-04-03 20:28:00,
2013-04-03 16:33:00,49.9,4.7,28.23,South,190,11.1,0.0,16,0.00,NA,NA,0.00,davis-wu-upload.pl,2013-04-03 20:33:00,
2013-04-03 16:38:00,49.7,5.0,28.23,South,190,11.1,0.0,16,0.00,NA,NA,0.00,davis-wu-upload.pl,2013-04-03 20:38:00,
2013-04-03 16:43:00,49.3,4.0,28.23,South,190,11.1,0.0,15,0.00,NA,NA,0.00,davis-wu-upload.pl,2013-04-03 20:43:00,
2013-04-03 16:48:00,49.3,3.4,28.23,South,190,11.1,0.0,15,0.00,NA,NA,0.00,davis-wu-upload.pl,2013-04-03 20:48:00,
2013-04-03 16:53:00,49.3,3.9,28.23,South,190,11.1,0.0,15,0.00,NA,NA,0.00,davis-wu-upload.pl,2013-04-03 20:53:00,
2013-04-03 16:59:00,49.5,3.1,28.24,South,190,11.1,0.0,15,0.00,NA,NA,0.00,davis-wu-upload.pl,2013-04-03 20:59:00,
2013-04-03 17:05:00,50.1,4.6,28.24,South,190,11.1,0.0,15,0.00,NA,NA,0.00,davis-wu-upload.pl,2013-04-03 21:05:00,
2013-04-03 17:10:00,49.8,3.9,28.24,South,190,11.1,0.0,15,0.00,NA,NA,0.00,davis-wu-upload.pl,2013-04-03 21:10:00,
2013-04-03 17:15:00,50.0,4.1,28.24,South,190,11.1,0.0,15,0.00,NA,NA,0.00,davis-wu-upload.pl,2013-04-03 21:15:00,
2013-04-03 17:20:00,49.1,3.8,28.24,South,190,11.1,0.0,15,0.00,NA,NA,0.00,davis-wu-upload.pl,2013-04-03 21:20:00,
2013-04-03 17:25:00,49.5,2.6,28.24,South,190,11.1,0.0,14,0.00,NA,NA,0.00,davis-wu-upload.pl,2013-04-03 21:25:00,
2013-04-03 17:30:00,49.7,2.5,28.24,South,190,11.1,0.0,14,0.00,NA,NA,0.00,davis-wu-upload.pl,2013-04-03 21:30:00,
2013-04-03 17:35:00,49.0,1.6,28.24,South,190,11.1,0.0,14,0.00,NA,NA,0.00,davis-wu-upload.pl,2013-04-03 21:35:00,
2013-04-03 17:41:00,50.0,3.8,28.24,South,190,11.1,0.0,15,0.00,NA,NA,0.00,davis-wu-upload.pl,2013-04-03 21:41:00,
2013-04-03 17:46:00,49.2,1.8,28.24,South,190,11.1,0.0,14,0.00,NA,NA,0.00,davis-wu-upload.pl,2013-04-03 21:46:00,
2013-04-03 17:51:00,49.2,2.0,28.24,South,190,11.1,0.0,14,0.00,NA,NA,0.00,davis-wu-upload.pl,2013-04-03 21:51:00,
2013-04-03 17:56:00,49.5,3.3,28.25,South,190,11.1,0.0,15,0.00,NA,NA,0.00,davis-wu-upload.pl,2013-04-03 21:56:00,
2013-04-03 18:01:00,49.3,2.8,28.25,South,190,11.1,0.0,15,0.00,NA,NA,0.00,davis-wu-upload.pl,2013-04-03 22:01:00,
2013-04-03 18:06:00,49.8,3.5,28.25,South,190,11.1,0.0,15,0.00,NA,NA,0.00,davis-wu-upload.pl,2013-04-03 22:06:00,
2013-04-03 18:11:00,49.4,2.9,28.25,South,190,11.1,0.0,15,0.00,NA,NA,0.00,davis-wu-upload.pl,2013-04-03 22:11:00,
2013-04-03 18:16:00,49.3,2.6,28.25,South,190,11.1,0.0,14,0.00,NA,NA,0.00,davis-wu-upload.pl,2013-04-03 22:16:00,
2013-04-03 18:21:00,48.9,1.7,28.25,South,190,11.1,0.0,14,0.00,NA,NA,0.00,davis-wu-upload.pl,2013-04-03 22:21:00,
2013-04-03 18:26:00,48.2,1.4,28.25,South,190,11.1,0.0,14,0.00,NA,NA,0.00,davis-wu-upload.pl,2013-04-03 22:26:00,
2013-04-03 18:31:00,48.7,2.7,28.25,South,190,11.1,0.0,15,0.00,NA,NA,0.00,davis-wu-upload.pl,2013-04-03 22:31:00,
2013-04-03 18:36:00,48.5,2.5,28.25,South,190,11.1,0.0,15,0.00,NA,NA,0.00,davis-wu-upload.pl,2013-04-03 22:36:00,
2013-04-03 18:41:00,48.2,1.9,28.25,South,190,11.1,0.0,15,0.00,NA,NA,0.00,davis-wu-upload.pl,2013-04-03 22:41:00,
2013-04-03 18:46:00,48.7,2.6,28.25,South,190,11.1,0.0,15,0.00,NA,NA,0.00,davis-wu-upload.pl,2013-04-03 22:46:00,
2013-04-03 18:51:00,47.9,1.3,28.26,South,190,11.1,0.0,14,0.00,NA,NA,0.00,davis-wu-upload.pl,2013-04-03 22:51:00,
2013-04-03 18:56:00,48.0,2.5,28.27,South,190,11.1,0.0,15,0.00,NA,NA,0.00,davis-wu-upload.pl,2013-04-03 22:56:00,
2013-04-03 19:01:00,47.0,2.5,28.27,South,190,11.1,0.0,16,0.00,NA,NA,0.00,davis-wu-upload.pl,2013-04-03 23:01:00,
2013-04-03 19:06:00,46.3,1.2,28.26,South,190,11.1,0.0,15,0.00,NA,NA,0.00,davis-wu-upload.pl,2013-04-03 23:06:00,
2013-04-03 19:11:00,46.1,1.4,28.27,South,190,11.1,0.0,15,0.00,NA,NA,0.00,davis-wu-upload.pl,2013-04-03 23:11:00,
2013-04-03 19:16:00,45.9,1.2,28.27,South,190,11.1,0.0,15,0.00,NA,NA,0.00,davis-wu-upload.pl,2013-04-03 23:16:00,
2013-04-03 19:21:00,45.7,1.8,28.27,South,190,11.1,0.0,16,0.00,NA,NA,0.00,davis-wu-upload.pl,2013-04-03 23:21:00,
2013-04-03 19:27:00,45.2,2.0,28.27,South,190,11.1,0.0,16,0.00,NA,NA,0.00,davis-wu-upload.pl,2013-04-03 23:27:00,
2013-04-03 19:32:00,45.0,1.7,28.27,South,190,11.1,0.0,16,0.00,NA,NA,0.00,davis-wu-upload.pl,2013-04-03 23:32:00,
2013-04-03 19:38:00,44.7,1.5,28.28,South,190,11.1,0.0,16,0.00,NA,NA,0.00,davis-wu-upload.pl,2013-04-03 23:38:00,
2013-04-03 19:43:00,44.4,1.5,28.27,South,190,11.1,0.0,16,0.00,NA,NA,0.00,davis-wu-upload.pl,2013-04-03 23:43:00,
2013-04-03 19:48:00,44.4,1.6,28.28,South,190,11.1,0.0,17,0.00,NA,NA,0.00,davis-wu-upload.pl,2013-04-03 23:48:00,
2013-04-03 19:53:00,44.0,2.1,28.28,South,190,11.1,0.0,17,0.00,NA,NA,0.00,davis-wu-upload.pl,2013-04-03 23:53:00,
2013-04-03 19:59:00,43.9,2.8,28.28,South,190,11.1,0.0,18,0.00,NA,NA,0.00,davis-wu-upload.pl,2013-04-03 23:59:00,
2013-04-03 20:05:00,43.5,3.6,28.29,South,190,11.1,0.0,19,0.00,NA,NA,0.00,davis-wu-upload.pl,2013-04-04 00:05:00,
2013-04-03 20:10:00,43.4,3.6,28.28,South,190,11.1,0.0,19,0.00,NA,NA,0.00,davis-wu-upload.pl,2013-04-04 00:10:00,
2013-04-03 20:15:00,43.2,3.8,28.29,South,190,11.1,0.0,19,0.00,NA,NA,0.00,davis-wu-upload.pl,2013-04-04 00:15:00,
2013-04-03 20:20:00,42.9,3.9,28.28,South,190,11.1,0.0,19,0.00,NA,NA,0.00,davis-wu-upload.pl,2013-04-04 00:20:00,
2013-04-03 20:26:00,42.7,3.8,28.29,South,190,11.1,0.0,20,0.00,NA,NA,0.00,davis-wu-upload.pl,2013-04-04 00:26:00,
2013-04-03 20:31:00,42.6,3.9,28.29,South,190,11.1,0.0,20,0.00,NA,NA,0.00,davis-wu-upload.pl,2013-04-04 00:31:00,
2013-04-03 20:36:00,42.4,3.4,28.29,South,190,11.1,0.0,19,0.00,NA,NA,0.00,davis-wu-upload.pl,2013-04-04 00:36:00,
2013-04-03 20:41:00,42.3,3.5,28.29,South,190,11.1,0.0,20,0.00,NA,NA,0.00,davis-wu-upload.pl,2013-04-04 00:41:00,
2013-04-03 20:46:00,42.2,4.0,28.29,South,190,11.1,0.0,20,0.00,NA,NA,0.00,davis-wu-upload.pl,2013-04-04 00:46:00,
2013-04-03 20:51:00,42.1,4.0,28.30,South,190,11.1,0.0,20,0.00,NA,NA,0.00,davis-wu-upload.pl,2013-04-04 00:51:00,
2013-04-03 20:56:00,41.9,4.2,28.30,South,190,11.1,0.0,21,0.00,NA,NA,0.00,davis-wu-upload.pl,2013-04-04 00:56:00,
2013-04-03 21:01:00,41.8,4.3,28.31,South,190,11.1,0.0,21,0.00,NA,NA,0.00,davis-wu-upload.pl,2013-04-04 01:01:00,
2013-04-03 21:06:00,41.8,4.3,28.31,South,190,11.1,0.0,21,0.00,NA,NA,0.00,davis-wu-upload.pl,2013-04-04 01:06:00,
2013-04-03 21:11:00,41.5,4.4,28.31,South,190,11.1,0.0,21,0.00,NA,NA,0.00,davis-wu-upload.pl,2013-04-04 01:11:00,
2013-04-03 21:16:00,41.4,4.7,28.30,South,190,11.1,0.0,21,0.00,NA,NA,0.00,davis-wu-upload.pl,2013-04-04 01:16:00,
2013-04-03 21:22:00,41.0,5.1,28.31,South,190,11.1,0.0,22,0.00,NA,NA,0.00,davis-wu-upload.pl,2013-04-04 01:22:00,
2013-04-03 21:27:00,40.8,5.1,28.31,South,190,11.1,0.0,22,0.00,NA,NA,0.00,davis-wu-upload.pl,2013-04-04 01:27:00,
2013-04-03 21:32:00,40.6,5.4,28.31,South,190,11.1,0.0,23,0.00,NA,NA,0.00,davis-wu-upload.pl,2013-04-04 01:32:00,
2013-04-03 21:37:00,40.3,5.8,28.31,South,190,11.1,0.0,23,0.00,NA,NA,0.00,davis-wu-upload.pl,2013-04-04 01:37:00,
2013-04-03 21:42:00,39.8,6.6,28.31,South,190,11.1,0.0,25,0.00,NA,NA,0.00,davis-wu-upload.pl,2013-04-04 01:42:00,
2013-04-03 21:48:00,39.3,6.9,28.32,South,190,11.1,0.0,26,0.00,NA,NA,0.00,davis-wu-upload.pl,2013-04-04 01:48:00,
2013-04-03 21:55:00,39.1,6.9,28.32,South,190,11.1,0.0,26,0.00,NA,NA,0.00,davis-wu-upload.pl,2013-04-04 01:55:00,
2013-04-03 22:00:00,38.8,6.8,28.32,South,190,11.1,0.0,26,0.00,NA,NA,0.00,davis-wu-upload.pl,2013-04-04 02:00:00,
2013-04-03 22:05:00,38.7,6.8,28.32,South,190,11.1,0.0,26,0.00,NA,NA,0.00,davis-wu-upload.pl,2013-04-04 02:05:00,
2013-04-03 22:10:00,38.3,6.8,28.33,South,190,11.1,0.0,27,0.00,NA,NA,0.00,davis-wu-upload.pl,2013-04-04 02:10:00,
2013-04-03 22:16:00,38.3,6.5,28.33,South,190,11.1,0.0,26,0.00,NA,NA,0.00,davis-wu-upload.pl,2013-04-04 02:16:00,
2013-04-03 22:21:00,38.2,6.4,28.33,South,190,11.1,0.0,26,0.00,NA,NA,0.00,davis-wu-upload.pl,2013-04-04 02:21:00,
2013-04-03 22:26:00,38.0,6.2,28.33,South,190,11.1,0.0,26,0.00,NA,NA,0.00,davis-wu-upload.pl,2013-04-04 02:26:00,
2013-04-03 22:31:00,37.9,6.1,28.34,South,190,11.1,0.0,26,0.00,NA,NA,0.00,davis-wu-upload.pl,2013-04-04 02:31:00,
2013-04-03 22:36:00,37.7,6.1,28.33,South,190,11.1,0.0,26,0.00,NA,NA,0.00,davis-wu-upload.pl,2013-04-04 02:36:00,
2013-04-03 22:41:00,37.5,6.0,28.34,South,190,11.1,0.0,26,0.00,NA,NA,0.00,davis-wu-upload.pl,2013-04-04 02:41:00,
2013-04-03 22:46:00,37.4,5.9,28.34,South,190,11.1,0.0,26,0.00,NA,NA,0.00,davis-wu-upload.pl,2013-04-04 02:46:00,
2013-04-03 22:51:00,37.4,5.8,28.34,South,190,11.1,0.0,26,0.00,NA,NA,0.00,davis-wu-upload.pl,2013-04-04 02:51:00,
2013-04-03 22:56:00,37.3,5.9,28.35,South,190,11.1,0.0,26,0.00,NA,NA,0.00,davis-wu-upload.pl,2013-04-04 02:56:00,
2013-04-03 23:01:00,37.2,5.9,28.34,South,190,11.1,0.0,27,0.00,NA,NA,0.00,davis-wu-upload.pl,2013-04-04 03:01:00,
2013-04-03 23:06:00,37.0,5.9,28.34,South,190,11.1,0.0,27,0.00,NA,NA,0.00,davis-wu-upload.pl,2013-04-04 03:06:00,
2013-04-03 23:11:00,36.8,5.9,28.35,South,190,11.1,0.0,27,0.00,NA,NA,0.00,davis-wu-upload.pl,2013-04-04 03:11:00,
2013-04-03 23:16:00,36.7,5.9,28.34,South,190,11.1,0.0,27,0.00,NA,NA,0.00,davis-wu-upload.pl,2013-04-04 03:16:00,
2013-04-03 23:21:00,36.7,5.9,28.35,South,190,11.1,0.0,27,0.00,NA,NA,0.00,davis-wu-upload.pl,2013-04-04 03:21:00,
2013-04-03 23:26:00,36.4,6.0,28.35,South,190,11.1,0.0,28,0.00,NA,NA,0.00,davis-wu-upload.pl,2013-04-04 03:26:00,
2013-04-03 23:31:00,36.3,6.0,28.35,South,190,11.1,0.0,28,0.00,NA,NA,0.00,davis-wu-upload.pl,2013-04-04 03:31:00,
2013-04-03 23:36:00,36.2,6.0,28.35,South,190,11.1,0.0,28,0.00,NA,NA,0.00,davis-wu-upload.pl,2013-04-04 03:36:00,
2013-04-03 23:41:00,36.1,6.0,28.35,South,190,11.1,0.0,28,0.00,NA,NA,0.00,davis-wu-upload.pl,2013-04-04 03:41:00,
2013-04-03 23:46:00,36.1,5.9,28.36,South,190,11.1,0.0,28,0.00,NA,NA,0.00,davis-wu-upload.pl,2013-04-04 03:46:00,
2013-04-03 23:51:00,36.1,6.0,28.36,South,190,11.1,0.0,28,0.00,NA,NA,0.00,davis-wu-upload.pl,2013-04-04 03:51:00,
2013-04-03 23:56:00,35.9,6.0,28.36,South,190,11.1,0.0,28,0.00,NA,NA,0.00,davis-wu-upload.pl,2013-04-04 03:56:00,